FENGYUN 1C DEB

Satellite information

Favourite Embed

Satellite Type and Status

DEBRISIN ORBIT

Key statistics

Satellite FENGYUN 1C DEB at a glance.

Uptime

9556

Days in orbit

Revolutions

≈ 14.0

Per day

Orbit

SSO

Sun Synchronous Orbit

Inclination

98.6

Latest

Satellite identification and parameters

Extended collection of information and parameters for FENGYUN 1C DEB.

Object identification

Identified? True

Debris? True

Object name: FENGYUN 1C DEB

International designator: 1999-025CXQ

Object number (NORAD): 32323

Object ID (CCSDS): 32323

Country: PEOPLES REPUBLIC OF CHINA (PRC)

Current information (Y/N): Y

RCS size: SMALL

Orbital parameters

Period: 103.226 minutes

Inclination: 98.5647 deg

SMA: 7289.286 km

Apoapsis: 1023.937 km

Periapsis: 798.365 km

RAAN: 341.6293 deg

Eccentricy: 0.0154729

Argument of periapsis: 292.8874 deg

Mean anomaly: 65.6019 deg

Mean motion: 13.95003419 rev/day

Mean motion (dot): 0.0000232 rev/day2

B* drag term: 0.0015871 1/REarth

Two-line elements (TLE)

Creation date: July 6, 2025, 6:05 p.m.

Reference frame: TEME

Reference center: EARTH

Epoch: July 6, 2025, 9:29 a.m. UTC

TLE line 0: 0 FENGYUN 1C DEB

TLE line 1: 1 32323U 99025CXQ 25187.39570395 .00002320 00000-0 15871-2 0 9993

TLE line 2: 2 32323 98.5647 341.6293 0154729 292.8874 65.6019 13.95003419580476

Live tracking on map

Real-time ground track for satellite FENGYUN 1C DEB.

In-orbit conjunctions

A list of the most updated potential collisions computed for object FENGYUN 1C DEB.

Target Orbit TCA Probability of collision Miss distance Type
CZ-6A DEB LEO 2024-10-07 21:57:24 0.0001716658 540.0 (m) DEBRIS
ALOUETTE 1 (S-27) LEO 2024-08-04 03:48:18 0.0002963139 304.0 (m) PAYLOAD

Associated space launch

Chinese polar orbiting meteorological satellite

FENGYUN 1C DEB was lifted into orbit during the mission ‘Long March 4B | Feng Yun 1C’, on board a Long March 4B space rocket.

The launch took place on May 10, 1999, 1:33 a.m. from Launch Complex 7.

For more information about the launch, click the button.

Launch to space Long March 4B | Feng Yun 1C
Long March 4B | Feng Yun 1C

Agency: N/A

Status: Launch Successful

Launch date: May 10, 1999, 1:33 a.m. UTC

Rocket: Long March 4B

Launch pad: Launch Complex 7

Location: Taiyuan Satellite Launch Center, People's Republic of China

...

Latest news about this satellite

There are no fresh news available about this satellite. Check back as we update our databases every day.


Newsletter sign-up

Weekly statistics, charts and insights to help you stay on top of the space industry.